Location: Newark
(34.9471°N, 136.1778°E)
Time: 14:13:58
(UTC+00:00)

METEOR M2 - Pass Details

Date: 01 March 2020
Orbit: 818 x 828 km, 98.5° (Epoch: 05 April)

Event Time Altitude Azimuth Distance (km) Brightness Sun altitude
Exits shadow 10:31:46 18° 158° (SSE) 1,925 ? -21.4°
Maximum altitude 10:35:50 75° 75° (ENE) 858 ? -22.2°
Drops below altitude 10° 10:41:13 10° 351° (N) 2,437 ? -23.3°
Sets 10:43:35 0° 350° (N) 3,373 ? -23.8°
